Weather History for KSAD - July, 2013

Change the Weather History Date:

Monday, July 15, 2013

  Actual Average Record
Temperature  
Mean Temperature 86 °F -  
Max Temperature 100 °F 99 °F 109 °F (1998)
Min Temperature 71 °F 70 °F 54 °F (1962)
Cooling Degree Days 20    
Growing Degree Days 36 (Base 50)    
Moisture  
Dew Point 59 °F    
Average Humidity 47    
Maximum Humidity 84    
Minimum Humidity 19    
Precipitation  
Precipitation 0.20 in - - ()
Sea Level Pressure  
Sea Level Pressure 29.79 in    
Wind  
Wind Speed 10 mph (SE)    
Max Wind Speed 25 mph    
Max Gust Speed 32 mph    
Visibility 10 miles    
Events Rain , Thunderstorm    
Averages and records for this station are not official NWS values.
T = Trace of Precipitation, MM = Missing Value Source: NWS Daily Summary

Daily Weather History Graph

Daily Weather History Graph

Search for Another Location

Airport or City:

Trip Planner

Search our weather history database for the weather conditions in past years. The results will help you decide how hot, cold, wet, or windy it might be!

Date:

Astronomy

Jul. 15, 2013 Rise Set
Actual Time 5:21 AM MST 7:27 PM MST
Civil Twilight 4:53 AM MST 7:55 PM MST
Nautical Twilight 4:19 AM MST 8:29 PM MST
Astronomical Twilight 3:42 AM MST 9:05 PM MST
Moon 12:17 PM MST (7/15) 11:44 PM MST (7/15)
Length of Visible Light 15h 02m
Length of Day
14h 06m
Waxing Crescent, 46% of the Moon is Illuminated
Jul 15
Waxing Crescent
Jul 15
First Quarter
Jul 22
Full
Jul 29
Last Quarter
Aug 6
New

Hourly Weather History & Observations

Time (MST) Temp. Heat Index Dew Point Humidity Pressure Visibility Wind Dir Wind Speed Gust Speed Precip Events Conditions
12:51 AM 78.1 °F - 59.0 °F 52% 29.73 in 10.0 mi NNW 6.9 mph - N/A   Clear
1:51 AM 77.0 °F - 60.1 °F 56% 29.74 in 10.0 mi North 8.1 mph - N/A   Clear
2:51 AM 78.1 °F - 57.9 °F 50% 29.73 in 10.0 mi NW 5.8 mph - N/A   Clear
3:51 AM 75.9 °F - 59.0 °F 56% 29.74 in 10.0 mi SSW 5.8 mph - N/A   Clear
4:51 AM 75.0 °F - 59.0 °F 57% 29.75 in 10.0 mi Calm Calm - N/A   Clear
5:51 AM 75.0 °F - 60.1 °F 60% 29.77 in 10.0 mi North 3.5 mph - N/A   Clear
6:51 AM 82.0 °F 82.4 °F 60.1 °F 47% 29.77 in 10.0 mi Calm Calm - N/A   Clear
7:51 AM 84.0 °F 83.8 °F 59.0 °F 43% 29.78 in 10.0 mi South 4.6 mph - N/A   Clear
8:51 AM 89.1 °F 87.1 °F 55.0 °F 31% 29.76 in 10.0 mi SE 9.2 mph - N/A   Clear
9:51 AM 91.9 °F 89.5 °F 54.0 °F 27% 29.75 in 10.0 mi SSE 10.4 mph - N/A   Clear
10:51 AM 91.9 °F 89.5 °F 54.0 °F 27% 29.75 in 10.0 mi Variable 5.8 mph - N/A   Clear
11:51 AM 93.9 °F 91.7 °F 54.0 °F 26% 29.73 in 10.0 mi West 6.9 mph - N/A   Clear
12:51 PM 97.0 °F 94.6 °F 54.0 °F 23% 29.70 in 10.0 mi West 11.5 mph 20.7 mph N/A   Clear
1:51 PM 99.0 °F - 51.1 °F 20% 29.68 in 10.0 mi WNW 11.5 mph 19.6 mph N/A   Clear
2:51 PM 100.0 °F - 51.1 °F 19% 29.64 in 10.0 mi West 13.8 mph 20.7 mph N/A   Clear
3:51 PM 95.0 °F 93.7 °F 57.0 °F 28% 29.64 in 10.0 mi East 25.3 mph 31.1 mph N/A   Mostly Cloudy
4:51 PM 91.9 °F 90.3 °F 55.9 °F 30% 29.63 in 10.0 mi East 25.3 mph 29.9 mph N/A   Partly Cloudy
5:38 PM 91.4 °F 89.4 °F 55.4 °F 29% 29.84 in 10.0 mi SE 13.8 mph 23.0 mph N/A Thunderstorm Mostly Cloudy
5:47 PM 89.6 °F 88.9 °F 59.0 °F 36% 29.85 in 10.0 mi South 16.1 mph 24.2 mph N/A   Mostly Cloudy
5:51 PM 90.0 °F 89.1 °F 59.0 °F 35% 29.68 in 10.0 mi SSE 16.1 mph - N/A   Mostly Cloudy
6:11 PM 86.0 °F 84.9 °F 57.2 °F 37% 29.87 in 10.0 mi South 21.9 mph 32.2 mph N/A Thunderstorm Thunderstorm
6:51 PM 80.1 °F 81.7 °F 64.0 °F 58% 29.74 in 10.0 mi East 18.4 mph 26.5 mph N/A Thunderstorm Mostly Cloudy
6:58 PM 78.8 °F - 62.6 °F 57% 29.91 in 10.0 mi East 20.7 mph 26.5 mph N/A Thunderstorm Mostly Cloudy
7:08 PM 80.6 °F 81.5 °F 60.8 °F 51% 29.90 in 10.0 mi ESE 20.7 mph 27.6 mph N/A   Overcast
7:16 PM 82.4 °F 82.9 °F 60.8 °F 48% 29.90 in 10.0 mi SSE 18.4 mph 27.6 mph N/A Thunderstorm Overcast
7:37 PM 80.6 °F 82.3 °F 64.4 °F 58% 29.94 in 10.0 mi SE 15.0 mph - 0.00 in   Overcast
7:51 PM 78.1 °F - 64.9 °F 64% 29.78 in 10.0 mi ESE 13.8 mph - 0.00 in Rain Light Rain
8:51 PM 77.0 °F - 64.9 °F 66% 29.81 in 10.0 mi SE 8.1 mph - 0.00 in   Scattered Clouds
9:51 PM 73.9 °F - 66.9 °F 79% 29.86 in 10.0 mi SSE 11.5 mph - 0.12 in   Overcast
10:51 PM 73.0 °F - 66.9 °F 81% 29.88 in 4.0 mi South 8.1 mph - 0.06 in Rain Heavy Rain
11:49 PM 71.6 °F - 66.2 °F 83% 30.06 in 10.0 mi ENE 6.9 mph - 0.02 in Rain Light Rain
11:51 PM 71.1 °F - 66.0 °F 84% 29.90 in 10.0 mi ENE 6.9 mph - 0.02 in Rain Light Rain